Simultaneous Nadir Overpasses (SNOs) Predictions

Prediction of SNOs between AQUA and NPP Satellite Orbit:

Table of predicted SNOs for the next 14.0 days since TLE Epoch: 9/30/2016
Index Date (AQUA) Time (AQUA) Lat,Lon (AQUA) SZA (AQUA ) Date (NPP) Time (NPP) Lat,Lon (NPP) SZA (NPP ) Distance(km) Time Diff (sec)
1 10/01/2016 20:59:30 -73.81, -81.50 77.48 10/01/2016 20:58:19 -73.81, -81.51 77.41 0.58 71
2 10/01/2016 21:48:27 75.28, 89.74 100.99 10/01/2016 21:48:33 75.27, 89.70 100.99 1.30 6
3 10/04/2016 13:15:47 -74.46, 35.87 77.20 10/04/2016 13:15:02 -74.46, 35.87 77.16 0.31 45
4 10/04/2016 14:04:47 75.75,-153.03 101.43 10/04/2016 14:05:19 75.75,-153.05 101.41 0.65 32
5 10/07/2016 05:32:03 -75.13, 153.46 76.96 10/07/2016 05:31:44 -75.14, 153.51 76.95 1.34 19
6 10/07/2016
